GW0979 Weather Reports


time (UTC)temp
C
wind
direction
speed
KPH
gust
KPH
rain 1hr
cm
rain 24hr
cm
rain mn
cm
humidity
%
barometer
mb
20260504130800 13 172 6.4 8.0 0.00 0.00 0.00 53 1005.5
20260504130256 14 164 6.4 9.7 0.00 0.00 0.00 52 1005.6
20260504120220 6 185 0.0 0.0 0.00 0.00 0.00 93 1006.1
20260504110647 5 183 0.0 0.0 0.00 0.00 0.00 95 1006.5
20260504110143 5 182 0.0 0.0 0.00 0.00 0.00 95 1006.4
20260504100609 5 176 0.0 0.0 0.00 0.00 0.00 94 1006.7
20260504100107 5 176 0.0 0.0 0.00 0.00 0.00 94 1006.6
20260504082003 4 177 0.0 0.0 0.00 0.00 0.00 90 1006.9
20260504081500 4 176 0.0 0.0 0.00 0.00 0.00 91 1006.9
20260504080955 3 177 0.0 0.0 0.00 0.00 0.00 92 1006.9
20260504080452 3 177 0.0 0.0 0.00 0.00 0.00 92 1007.3
20260504050305 1 177 0.0 0.0 0.00 0.00 0.00 84 1007.5
20260504045802 1 177 0.0 0.0 0.00 0.00 0.00 84 1007.6
20260504045304 1 177 0.0 0.0 0.00 0.00 0.00 84 1007.9
20260504044800 1 177 0.0 0.0 0.00 0.00 0.00 83 1007.8
20260504044258 1 177 0.0 0.0 0.00 0.00 0.00 85 1007.9
20260504043754 1 177 0.0 0.0 0.00 0.00 0.00 86 1007.9
20260504043251 1 177 0.0 0.0 0.00 0.00 0.00 86 1008.0
20260504042749 1 177 0.0 0.0 0.00 0.00 0.00 87 1008.1
20260504042245 0 177 0.0 0.0 0.00 0.00 0.00 88 1008.1
20260504041742 0 177 0.0 0.0 0.00 0.00 0.00 88 1008.3
20260504041238 0 177 0.0 0.0 0.00 0.00 0.00 89 1008.2
20260504040734 0 177 0.0 0.0 0.00 0.00 0.00 89 1008.2
20260504040232 0 177 0.0 0.0 0.00 0.00 0.00 89 1008.2
20260504035728 0 177 0.0 0.0 0.00 0.00 0.00 89 1008.1
20260504035225 0 178 0.0 0.0 0.00 0.00 0.00 89 1008.2
20260504034723 0 178 0.0 0.0 0.00 0.00 0.00 90 1008.3
20260504034220 0 178 0.0 0.0 0.00 0.00 0.00 90 1008.2
20260504033717 0 177 0.0 0.0 0.00 0.00 0.00 90 1008.1
20260504033214 0 179 0.0 0.0 0.00 0.00 0.00 89 1008.3
20260504032711 0 178 0.0 0.0 0.00 0.00 0.00 89 1008.3
20260504032209 0 179 0.0 0.0 0.00 0.00 0.00 89 1008.1
20260504031705 0 178 0.0 0.0 0.00 0.00 0.00 89 1008.3
20260504031202 0 178 0.0 0.0 0.00 0.00 0.00 89 1008.4
20260504030658 0 178 0.0 0.0 0.00 0.00 0.00 88 1008.1
20260504030155 0 178 0.0 1.6 0.00 0.00 0.00 88 1008.3
20260504025652 0 180 0.0 0.0 0.00 0.00 0.00 88 1008.4
20260504025149 0 180 0.0 0.0 0.00 0.00 0.00 87 1008.4
20260504024646 0 181 0.0 0.0 0.00 0.00 0.00 87 1008.3
20260504024142 0 180 0.0 0.0 0.00 0.00 0.00 87 1008.3
20260504023639 0 179 0.0 0.0 0.00 0.00 0.00 87 1008.4
20260504023135 0 180 0.0 0.0 0.00 0.00 0.00 87 1008.2
20260504022631 0 180 0.0 0.0 0.00 0.00 0.00 87 1008.3
20260504022127 0 180 0.0 0.0 0.00 0.00 0.00 87 1008.2
20260504021626 0 181 0.0 0.0 0.00 0.00 0.00 86 1008.2
20260504021122 1 181 0.0 0.0 0.00 0.00 0.00 86 1008.2
20260504020619 1 181 0.0 0.0 0.00 0.00 0.00 85 1008.2
20260504020115 1 181 0.0 0.0 0.00 0.00 0.00 85 1008.3
20260504015612 1 181 0.0 0.0 0.00 0.00 0.00 84 1008.3
20260504015108 1 181 0.0 0.0 0.00 0.00 0.00 83 1008.3
20260504014604 1 181 0.0 0.0 0.00 0.00 0.00 83 1008.3
20260504014101 2 181 0.0 0.0 0.00 0.00 0.00 82 1008.3
20260504013559 2 181 0.0 0.0 0.00 0.00 0.00 81 1008.2
20260504013055 2 181 0.0 0.0 0.00 0.00 0.00 81 1008.3
20260504012553 2 182 0.0 0.0 0.00 0.00 0.00 81 1008.1
20260504012051 2 182 0.0 0.0 0.00 0.00 0.00 81 1008.1
20260504011547 2 182 0.0 0.0 0.00 0.00 0.00 80 1008.0
20260504011043 2 182 0.0 0.0 0.00 0.00 0.00 79 1008.1
20260504010539 2 182 0.0 0.0 0.00 0.00 0.00 79 1008.1
20260504010035 2 182 0.0 0.0 0.00 0.00 0.00 79 1008.0
20260504005532 2 182 0.0 0.0 0.00 0.00 0.00 79 1008.1
20260504005030 2 182 0.0 0.0 0.00 0.00 0.00 78 1007.8
20260504004527 2 182 0.0 0.0 0.00 0.00 0.00 77 1007.8
20260504004024 3 182 0.0 0.0 0.00 0.00 0.00 76 1007.8
20260504003520 3 182 0.0 0.0 0.00 0.00 0.00 75 1007.8
20260504003017 3 182 0.0 0.0 0.00 0.00 0.00 74 1007.7
20260504002514 3 182 0.0 0.0 0.00 0.00 0.00 74 1007.6
20260504002012 4 182 0.0 0.0 0.00 0.00 0.00 73 1007.7
20260504001509 4 182 0.0 0.0 0.00 0.00 0.00 72 1007.5
20260504001005 5 182 0.0 0.0 0.00 0.00 0.00 71 1007.6
20260504000503 5 181 0.0 0.0 0.00 0.00 0.00 71 1007.5
20260504000000 5 181 0.0 0.0 0.00 0.00 0.00 68 1007.4
20260503235458 5 181 0.0 0.0 0.00 0.00 0.00 67 1007.4
20260503234954 6 181 0.0 0.0 0.00 0.00 0.00 62 1007.6
20260503234452 6 181 0.0 0.0 0.00 0.00 0.00 62 1007.4
20260503233950 6 181 0.0 0.0 0.00 0.00 0.00 61 1007.6
20260503233446 6 181 0.0 0.0 0.00 0.00 0.00 61 1007.4
20260503232943 7 182 0.0 0.0 0.00 0.00 0.00 60 1007.4
20260503232440 7 183 0.0 0.0 0.00 0.00 0.00 59 1007.5
20260503231938 7 182 0.0 0.0 0.00 0.00 0.00 57 1007.3
20260503231435 7 182 0.0 0.0 0.00 0.00 0.00 56 1007.4
20260503230931 7 182 0.0 0.0 0.00 0.00 0.00 56 1007.3
20260503230427 8 183 0.0 0.0 0.00 0.00 0.00 51 1007.3
20260503225925 8 186 0.0 0.0 0.00 0.00 0.00 48 1007.5
20260503225422 8 175 1.6 3.2 0.00 0.00 0.00 48 1007.3
20260503224918 8 176 0.0 0.0 0.00 0.00 0.00 49 1007.5
20260503224415 8 187 0.0 0.0 0.00 0.00 0.00 46 1007.4
20260503223912 8 178 0.0 1.6 0.00 0.00 0.00 46 1007.3
20260503223411 9 180 0.0 0.0 0.00 0.00 0.00 47 1007.3
20260503222911 9 185 0.0 0.0 0.00 0.00 0.00 45 1007.1
20260503222409 10 20 3.2 3.2 0.00 0.00 0.00 47 1007.1
20260503221907 9 33 3.2 3.2 0.00 0.00 0.00 47 1007.5
20260503221406 9 187 0.0 0.0 0.00 0.00 0.00 47 1007.3
20260503220902 9 177 0.0 1.6 0.00 0.00 0.00 46 1007.1
20260503220358 9 171 0.0 0.0 0.00 0.00 0.00 48 1007.1
20260503215855 9 347 3.2 4.8 0.00 0.00 0.00 46 1007.4
20260503215352 9 335 3.2 4.8 0.00 0.00 0.00 47 1007.1
20260503214850 9 173 4.8 8.0 0.00 0.00 0.00 46 1007.4
20260503214347 9 172 0.0 0.0 0.00 0.00 0.00 47 1007.4
20260503213844 9 77 6.4 9.7 0.00 0.00 0.00 46 1007.4
20260503213342 10 16 4.8 4.8 0.00 0.00 0.00 46 1007.1
20260503212839 9 178 0.0 0.0 0.00 0.00 0.00 45 1007.3
20260503212337 9 164 4.8 4.8 0.00 0.00 0.00 46 1007.1
20260503211833 9 169 1.6 3.2 0.00 0.00 0.00 48 1007.4
20260503211330 8 174 0.0 0.0 0.00 0.00 0.00 48 1007.5
20260503210825 8 181 1.6 3.2 0.00 0.00 0.00 47 1007.1
20260503210323 9 172 1.6 1.6 0.00 0.00 0.00 48 1007.3
20260503205818 9 178 0.0 1.6 0.00 0.00 0.00 45 1007.0
20260503205315 9 345 4.8 8.0 0.00 0.00 0.00 46 1007.0
20260503204811 9 176 1.6 1.6 0.00 0.00 0.00 48 1006.8
20260503204309 10 159 6.4 8.0 0.00 0.00 0.00 46 1006.9
20260503203806 9 185 0.0 1.6 0.00 0.00 0.00 48 1007.0
20260503203303 8 189 0.0 0.0 0.00 0.00 0.00 49 1007.0
20260503202800 8 176 3.2 4.8 0.00 0.00 0.00 48 1007.3
20260503202258 8 172 1.6 1.6 0.00 0.00 0.00 48 1007.3
20260503201755 8 183 0.0 0.0 0.00 0.00 0.00 47 1007.1
20260503201253 8 172 0.0 0.0 0.00 0.00 0.00 49 1007.1
20260503200750 8 174 0.0 0.0 0.00 0.00 0.00 48 1007.3
20260503200246 8 175 4.8 8.0 0.00 0.00 0.00 48 1007.1
20260503195743 8 195 1.6 1.6 0.00 0.00 0.00 49 1007.3
20260503195240 8 135 3.2 4.8 0.00 0.00 0.00 50 1007.3
20260503194738 8 193 0.0 0.0 0.00 0.00 0.00 52 1007.5
20260503194233 8 187 8.0 12.9 0.00 0.00 0.00 50 1007.7
20260503193729 8 115 3.2 3.2 0.00 0.00 0.00 52 1007.6
20260503193225 8 106 0.0 1.6 0.00 0.00 0.00 50 1007.7
20260503192721 8 170 0.0 0.0 0.00 0.00 0.00 50 1007.7
20260503192216 8 176 0.0 0.0 0.00 0.00 0.00 51 1007.7
20260503191713 8 180 1.6 3.2 0.00 0.00 0.00 51 1007.8
20260503191211 8 179 0.0 0.0 0.00 0.00 0.00 49 1007.7
20260503190707 8 42 11.3 12.9 0.00 0.00 0.00 48 1007.7
20260503190204 8 264 3.2 3.2 0.00 0.00 0.00 49 1007.7
20260503185702 8 170 1.6 8.0 0.00 0.00 0.00 49 1007.9
20260503185156 8 174 0.0 1.6 0.00 0.00 0.00 52 1007.9
20260503184651 8 355 6.4 9.7 0.00 0.00 0.00 51 1007.7
20260503184148 8 30 8.0 14.5 0.00 0.00 0.00 47 1007.8
20260503183644 8 180 0.0 1.6 0.00 0.00 0.00 50 1007.7
20260503183142 8 151 1.6 3.2 0.00 0.00 0.00 48 1007.7
20260503182640 8 177 3.2 3.2 0.00 0.00 0.00 47 1007.9
20260503182139 8 242 3.2 3.2 0.00 0.00 0.00 48 1007.7
20260503181635 8 148 1.6 1.6 0.00 0.00 0.00 47 1007.9
20260503181132 8 182 1.6 3.2 0.00 0.00 0.00 48 1007.6
20260503180628 8 191 0.0 1.6 0.00 0.00 0.00 46 1007.8
20260503180126 9 290 0.0 3.2 0.00 0.00 0.00 44 1007.7
20260503175623 9 7 6.4 8.0 0.00 0.00 0.00 43 1007.4
20260503175120 8 345 8.0 11.3 0.00 0.00 0.00 43 1007.6
20260503174617 8 97 4.8 9.7 0.00 0.00 0.00 42 1007.7
20260503174114 8 348 4.8 8.0 0.00 0.00 0.00 41 1007.6
20260503173609 8 94 1.6 1.6 0.00 0.00 0.00 44 1007.5
20260503173106 8 222 1.6 1.6 0.00 0.00 0.00 42 1007.5
20260503172603 8 3 9.7 12.9 0.00 0.00 0.00 42 1007.7
20260503172100 8 312 4.8 8.0 0.00 0.00 0.00 44 1007.8
20260503171556 9 32 12.9 20.9 0.00 0.00 0.00 45 1007.6
20260503171054 8 252 1.6 1.6 0.00 0.00 0.00 47 1007.4
20260503170550 9 338 8.0 12.9 0.00 0.00 0.00 47 1007.4
20260503150943 7 8 4.8 4.8 0.00 0.00 0.00 54 1008.6
20260503150439 7 17 9.7 11.3 0.00 0.00 0.00 53 1008.5